{"data":{"norad_id":44349,"intl_designator":"2019-036L","name":"FORMOSAT 7-1","alt_names":[],"object_type":"PAYLOAD","status":"ACTIVE","operator":null,"country":"ROC","launch_date":"2019-06-25","launch_site_code":"AFETR","launch_vehicle":null,"mission":null,"orbit_class":"UNKNOWN","rcs_meters":null,"size_class":null,"mass_kg":null,"dimensions":null,"purposes":[],"wikipedia_slug":null,"has_3d_model":false,"image_url":null,"decayed_at":null,"tle_current":{"epoch":"2026-09-19T23:38:09.877056Z","epoch_age_seconds":90740,"freshness":"FRESH","line1":"1 44349U 19036L   26262.98483654  .00001887  00000+0  13488-3 0  9998","line2":"2 44349  23.9971 113.1221 0000653 187.6091 172.4400 14.96829946398875","mean_motion":14.96829946,"eccentricity":6.53e-5,"inclination_deg":23.9971,"raan_deg":113.1221,"arg_perigee_deg":187.6091,"mean_anomaly_deg":172.44,"bstar":0.00013488,"rev_number":39887,"period_min":96.203313131738,"perigee_km":576.24440699373,"apogee_km":577.15270851757,"semimajor_km":6954.8355577556,"source":"CELESTRAK","updated_at":"2026-09-20T09:00:14.525002Z"}}}